Regional Weather Roundup
Issued by NWS

Home | Current Version | Previous Version | Text Only | Print | Product List | Glossary On
Versions: 1 2 3 4 5 6 7 8 9 10 11 12 13 14 15 16 17 18 19 20 21 22 23 24 25 26 27
000
ASUS45 KREV 260410
RWRNV
NEVADA REGIONAL WEATHER ROUNDUP
NATIONAL WEATHER SERVICE RENO NV
900 PM PDT WED MAY 25 2016

NOTE: "FAIR" INDICATES FEW OR NO CLOUDS BELOW 12,000 FEET WITH NO
SIGNIFICANT WEATHER AND/OR OBSTRUCTIONS TO VISIBILITY.

NVZ001-003-004-260500-
WESTERN NEVADA

CITY           SKY/WX    TMP DP  RH WIND       PRES   REMARKS
RENO           MOCLDY    59  40  49 NW9       30.09S
CARSON CITY    CLOUDY    52  45  76 E5        30.13S
MINDEN         CLOUDY    55  41  58 NW15      30.13R
SLIDE MTN        N/A     34  32  93 VRB12       N/A
FALLON         CLOUDY    55  44  66 W12       30.06R
LOVELOCK       CLOUDY    57  43  59 E8        30.06R
HAWTHORNE      MOCLDY    57  46  67 SE6       30.09R
$$

NVZ002-CAZ072-073-260500-
NORTHERN AND CENTRAL SIERRA

CITY           SKY/WX    TMP DP  RH WIND       PRES   REMARKS
S. LAKE TAHOE  CLOUDY    48  39  71 N3        30.17R
TRUCKEE        MOCLDY    43  41  93 CALM      30.17S
SQUAW VLY 8000 NOT AVBL
BLUE CANYON    CLOUDY    46  43  89 CALM      30.17S
MAMMOTH LAKES  RAIN      38  38  98 S3        30.20R
BRIDGEPORT     CLOUDY    45  38  76 CALM      30.14R
$$

NVZ030-031-036-260500-
NORTHERN NEVADA

CITY           SKY/WX    TMP DP  RH WIND       PRES   REMARKS
ELKO           MOCLDY    48  43  82 W3        30.09R
WINNEMUCCA     CLOUDY    48  44  86 S9        30.09S
WENDOVER       CLOUDY    55  37  50 NW10      30.04S
$$

NVZ035-037-260500-
CENTRAL NEVADA

CITY           SKY/WX    TMP DP  RH WIND       PRES   REMARKS
ELY            CLOUDY    44  37  76 N10       30.14R
EUREKA           N/A     46  40  79 SW8       30.11R
$$

NVZ013-014-260500-
SOUTH CENTRAL NEVADA

CITY           SKY/WX    TMP DP  RH WIND       PRES   REMARKS
TONOPAH        CLOUDY    52  39  61 N14       30.10R
$$

NVZ017-020-022-260500-
SOUTHERN NEVADA

CITY           SKY/WX    TMP DP  RH WIND       PRES   REMARKS
LAS VEGAS      PTCLDY    72  34  24 NW14      29.87R
N. LAS VEGAS   PTCLDY    70  36  28 N24G32    29.87R
NELLIS AFB     CLEAR     72  38  29 W23G35    29.86R
HENDERSON      CLEAR     67  33  28 S6        29.93R
MERCURY        PTCLDY    62  34  35 SW3       29.98R
$$




USA.gov is the U.S. government's official web portal to all federal, state and local government web resources and services.